CW7054 Weather Reports


Display with metric or nautical units.
time (UTC)temp
F
wind
direction
speed
MPH
gust
MPH
rain 1hr
in
rain 24hr
in
rain mn
in
humidity
%
barometer
mb
20260906180003 70 79 2.0 8.0 0.00 0.07 0.07 72 1014.7
20260906174501 69 28 2.0 9.0 0.00 0.07 0.07 74 1014.8
20260906173100 68 80 1.0 5.0 0.00 0.07 0.07 76 1014.8
20260906171606 67 61 1.0 5.0 0.00 0.07 0.07 78 1015.0
20260906170057 67 55 0.0 2.0 0.00 0.07 0.07 80 1015.0
20260906164559 67 63 1.0 5.0 0.00 0.07 0.07 78 1015.2
20260906163055 67 40 3.0 8.0 0.00 0.07 0.07 78 1015.0
20260906161601 67 57 1.0 8.0 0.00 0.07 0.07 78 1015.0
20260906160055 67 28 2.0 8.0 0.00 0.07 0.07 79 1015.0
20260906154551 67 81 2.0 8.0 0.00 0.07 0.07 82 1015.0
20260906153050 66 86 1.0 6.0 0.00 0.07 0.07 82 1015.0
20260906151548 66 90 3.0 11.0 0.00 0.07 0.07 84 1014.8
20260906150058 66 52 0.0 9.0 0.00 0.07 0.07 85 1014.9
20260906144559 66 79 3.0 9.0 0.00 0.07 0.07 84 1014.9
20260906143046 66 79 2.0 7.0 0.00 0.07 0.07 84 1014.7
20260906141547 66 74 3.0 10.0 0.00 0.07 0.07 83 1014.7
20260906140044 65 55 2.0 8.0 0.01 0.07 0.07 84 1014.6
20260906134543 65 64 0.0 4.0 0.01 0.07 0.07 84 1014.6
20260906133043 66 56 0.0 2.0 0.01 0.07 0.07 85 1014.5
20260906131541 66 42 0.0 6.0 0.01 0.07 0.07 85 1014.3
20260906130046 66 63 1.0 4.0 0.00 0.06 0.06 85 1014.4
20260906124538 65 59 1.0 4.0 0.00 0.06 0.06 85 1014.2
20260906123038 65 61 0.0 3.0 0.00 0.06 0.06 87 1014.0
20260906121535 65 77 1.0 7.0 0.00 0.06 0.06 88 1013.9
20260906120036 64 49 1.0 5.0 0.00 0.06 0.06 89 1013.6
20260906114537 63 59 0.0 1.0 0.00 0.06 0.06 90 1013.6
20260906113032 63 59 0.0 3.0 0.01 0.06 0.06 90 1013.4
20260906111528 63 59 0.0 1.0 0.01 0.06 0.06 90 1013.2
20260906110038 63 59 0.0 1.0 0.01 0.06 0.06 90 1012.9
20260906104525 63 59 0.0 1.0 0.01 0.06 0.06 89 1012.9
20260906103023 63 59 0.0 0.0 0.00 0.05 0.05 89 1012.5
20260906101522 63 59 0.0 0.0 0.00 0.05 0.05 88 1012.4
20260906100022 63 59 0.0 1.0 0.01 0.05 0.05 89 1012.3
20260906094530 63 59 0.0 0.0 0.01 0.05 0.05 88 1012.4
20260906093020 63 59 0.0 2.0 0.01 0.05 0.05 88 1012.3
20260906091519 63 60 0.0 3.0 0.01 0.05 0.05 89 1011.8
20260906090018 63 63 0.0 1.0 0.00 0.04 0.04 90 1011.8
20260906084517 63 63 0.0 0.0 0.01 0.04 0.04 91 1011.8
20260906081535 63 63 0.0 0.0 0.01 0.04 0.04 91 1011.8
20260906080017 63 63 0.0 0.0 0.01 0.04 0.04 91 1011.8
20260906074514 63 63 0.0 0.0 0.00 0.03 0.03 91 1011.7
20260906073013 63 63 0.0 0.0 0.00 0.03 0.03 91 1011.7
20260906071512 64 63 0.0 0.0 0.01 0.03 0.03 91 1011.6
20260906070012 64 63 0.0 1.0 0.01 0.03 0.03 91 1011.6
20260906064511 64 63 0.0 0.0 0.01 0.03 0.03 91 1011.7
20260906063010 64 63 0.0 0.0 0.00 0.02 0.02 90 1011.9
20260906061509 64 63 0.0 0.0 0.01 0.02 0.02 90 1011.9
20260906060005 64 63 0.0 1.0 0.01 0.02 0.02 89 1011.8
20260906054504 64 63 0.0 0.0 0.01 0.02 0.02 88 1011.7
20260906053002 65 63 0.0 0.0 0.01 0.02 0.02 87 1011.9
20260906051559 65 63 0.0 0.0 0.01 0.01 0.01 86 1012.1
20260906050115 65 63 0.0 5.0 0.01 0.01 0.01 84 1012.3
20260906044556 66 59 0.0 3.0 0.01 0.01 0.01 84 1012.3
20260906043056 66 59 0.0 4.0 0.01 0.01 0.01 84 1012.3
20260906041552 66 68 0.0 3.0 0.00 0.00 0.00 84 1012.1
20260906040110 66 67 0.0 4.0 0.00 0.00 0.00 84 1012.0
20260906034601 66 72 0.0 3.0 0.00 0.00 0.00 85 1012.0
20260906033049 66 76 0.0 5.0 0.00 0.00 0.00 85 1012.0
20260906031551 66 52 0.0 7.0 0.00 0.00 0.00 86 1011.8
20260906030047 66 76 1.0 6.0 0.00 0.00 0.00 87 1011.8
20260906024545 66 53 0.0 4.0 0.00 0.00 0.00 87 1011.7
20260906023050 67 53 0.0 7.0 0.00 0.00 0.00 87 1011.5
20260906021554 67 41 1.0 7.0 0.00 0.00 0.00 88 1011.7
20260906020053 67 84 0.0 6.0 0.00 0.00 0.00 89 1011.5
20260906014552 67 71 1.0 5.0 0.00 0.00 0.00 89 1011.6
20260906013041 67 71 0.0 5.0 0.00 0.00 0.00 89 1011.2
20260906011540 67 74 0.0 2.0 0.00 0.00 0.00 88 1011.3
20260906010039 68 75 0.0 4.0 0.00 0.00 0.00 88 1011.3
20260906004537 68 71 1.0 8.0 0.00 0.00 0.00 88 1010.9
20260906003040 68 78 1.0 6.0 0.00 0.00 0.00 88 1010.8
20260906001534 69 76 1.0 5.0 0.00 0.00 0.00 88 1010.5
20260906000033 69 73 1.0 5.0 0.00 0.00 0.00 87 1010.5
20260905234532 69 65 1.0 4.0 0.00 0.00 0.00 88 1010.4
20260905233033 69 65 1.0 5.0 0.00 0.00 0.00 87 1010.2
20260905231532 70 74 0.0 3.0 0.00 0.00 0.00 86 1010.1
20260905230028 71 71 0.0 5.0 0.00 0.00 0.00 85 1010.0
20260905224528 72 78 0.0 6.0 0.00 0.00 0.00 83 1009.9
20260905223036 73 96 2.0 12.0 0.00 0.00 0.00 79 1009.9
20260905221538 74 59 1.0 6.0 0.00 0.00 0.00 78 1009.7
20260905220027 75 65 0.0 2.0 0.00 0.00 0.00 76 1009.6
20260905214524 76 61 0.0 1.0 0.00 0.00 0.00 73 1009.6
20260905213023 77 57 0.0 5.0 0.00 0.00 0.00 68 1009.2
20260905211537 77 94 0.0 2.0 0.00 0.00 0.00 68 1009.1
20260905210022 77 43 0.0 3.0 0.00 0.00 0.00 67 1008.9
20260905204521 77 43 0.0 1.0 0.00 0.01 0.00 68 1008.7
20260905203025 77 44 1.0 6.0 0.00 0.01 0.00 65 1008.7
20260905201521 77 38 0.0 3.0 0.00 0.01 0.00 66 1008.6
20260905200021 77 41 0.0 6.0 0.00 0.01 0.00 65 1008.6
20260905194520 78 76 1.0 9.0 0.00 0.02 0.00 65 1008.8
20260905193019 78 71 1.0 9.0 0.00 0.02 0.00 67 1008.7
20260905191519 78 212 0.0 6.0 0.00 0.02 0.00 67 1008.7
20260905190019 78 189 0.0 3.0 0.00 0.02 0.00 66 1008.7
20260905184518 77 88 0.0 3.0 0.00 0.03 0.00 67 1008.9
20260905183018 78 74 1.0 6.0 0.00 0.03 0.00 67 1008.9
20260905181516 78 48 0.0 6.0 0.00 0.03 0.00 67 1009.0